Temp
55 56 56 56 56 56 56 56 56 55 55 54 54 54 54 54 55 55 55 55 55 55 56 57 57 56 57 57 57 57 57 57 57 57 57 56 56 56 56 55 55 55 55 54 53 52 52 51 52 52 56 60
54 54 54 54 54 54 54 54 54 54 53 52 52 52 52 52 52 53 53 54 54 54 54 55 55 55 55 56 56 56 56 56 56 56 55 55 55 55 54 54 54 54 54 53 52 51 50 51 51 52 54 58
54 52 52 52 52 52 52 52 52 51 51 50 50 49 49 50 50 50 51 51 52 52 52 52 53 54 54 54 54 55 55 55 55 55 54 54 53 53 52 52 53 52 53 52 51 50 50 50 51 52 55 57
54 51 51 51 50 50 50 50 50 49 49 48 48 48 48 48 49 49 50 49 51 50 49 50 51 52 53 53 53 53 53 53 54 53 53 52 52 51 50 50 50 50 51 51 50 50 50 50 52 55 56 56
52 51 50 50 49 48 48 48 48 47 47 47 47 48 47 49 52 52 51 51 51 49 50 48 49 50 51 52 51 51 51 52 52 52 52 51 50 49 49 49 49 49 50 50 49 49 50 51 55 54 54 55
51 50 51 52 52 51 50 48 48 49 49 48 50 47 50 52 53 52 51 50 48 51 49 48 47 48 49 50 50 50 49 50 51 51 50 50 49 49 48 49 53 52 50 49 49 49 50 53 54 53 54 54
51 52 52 51 51 49 48 48 49 50 49 50 49 50 51 52 52 51 50 48 46 47 45 46 45 45 47 47 47 47 47 47 47 48 48 48 48 48 49 51 52 52 52 53 50 51 53 54 52 52 53 54
53 52 52 52 51 51 51 49 49 49 49 49 49 50 52 51 50 49 49 43 42 45 49 47 44 43 44 45 45 45 47 47 46 46 47 47 48 49 50 51 52 52 52 52 53 53 53 53 52 52 53 53
52 52 52 52 51 51 51 50 50 50 49 48 48 49 51 49 48 49 50 50 50 51 50 50 50 50 50 50 48 47 49 50 49 50 50 51 50 51 50 50 50 51 51 52 52 52 52 52 52 52 52 52
51 50 51 51 51 51 51 50 50 50 50 49 49 49 49 49 49 49 50 49 49 49 50 50 50 50 50 49 49 50 50 50 50 51 51 50 50 51 51 50 50 50 50 50 51 52 51 51 52 52 52 52
51 51 52 51 51 50 50 51 50 50 50 50 49 49 49 50 50 50 50 49 48 49 50 50 50 50 50 49 50 51 50 49 50 50 50 50 50 50 50 50 50 50 50 50 50 50 50 50 51 51 51 52
52 52 51 51 49 51 50 50 50 50 50 49 49 50 52 51 52 51 50 49 49 49 50 48 49 50 49 49 49 50 50 49 50 50 50 49 49 50 50 50 49 50 51 50 50 49 49 49 50 50 51 51
52 52 51 51 51 51 49 51 51 50 50 50 51 49 49 51 51 51 50 49 49 50 48 48 49 49 49 49 49 50 49 49 49 49 49 49 49 49 50 50 49 50 50 51 51 50 49 49 50 49 50 50
52 51 50 50 51 51 50 51 51 49 50 51 50 50 49 49 51 51 50 49 50 49 47 48 48 48 48 48 49 49 48 49 49 49 49 48 49 49 49 49 48 50 50 50 50 50 49 49 50 50 49 49
52 52 51 51 51 51 51 51 50 50 51 50 51 50 48 49 49 50 50 49 49 49 48 48 48 48 49 48 48 49 48 48 48 48 47 47 48 49 49 49 49 49 50 50 50 49 49 49 50 50 50 50
52 52 52 51 52 51 51 50 50 51 51 50 50 49 48 49 49 50 49 48 48 49 48 49 48 48 48 47 48 48 47 47 47 47 46 45 46 47 48 49 49 49 50 50 50 50 49 49 49 49 49 49
53 53 53 52 52 52 50 50 51 51 51 51 50 49 48 49 48 50 49 48 47 47 48 47 47 47 47 48 47 47 44 45 47 48 47 46 47 48 48 48 48 48 50 49 49 50 49 50 49 49 49 49
53 53 52 53 53 53 50 52 51 51 51 51 51 49 48 48 48 49 49 48 47 48 48 47 47 47 47 47 46 46 46 47 48 48 46 47 48 46 48 47 47 48 48 49 49 50 49 50 49 49 48 48
53 53 53 52 53 52 51 52 52 52 52 51 51 50 49 48 48 48 48 48 48 47 48 48 47 46 47 46 46 46 47 47 47 47 46 47 47 47 47 46 46 46 47 46 47 48 49 49 50 49 47 47
53 53 53 53 51 53 51 52 52 52 51 51 51 51 50 48 48 48 48 47 47 47 48 48 48 48 47 45 46 46 45 45 46 46 45 45 45 46 45 45 45 47 45 46 46 47 48 49 48 49 48 47
52 53 53 53 52 52 51 52 52 53 52 52 51 51 50 49 48 48 47 47 47 48 47 48 48 48 45 45 45 45 45 45 46 45 43 45 44 45 45 44 43 45 46 45 45 46 46 47 48 49 48 47
52 52 53 52 52 51 51 51 52 53 52 51 51 51 50 49 48 48 48 47 47 47 48 48 47 47 46 45 45 45 45 46 46 45 45 44 44 44 44 45 44 44 45 43 44 46 46 46 48 49 48 47
52 52 52 52 51 50 50 51 52 52 52 51 52 51 50 49 49 49 48 47 47 47 47 47 47 46 45 45 45 45 45 44 44 44 44 43 43 43 44 44 44 43 43 42 43 44 46 47 47 48 48 47
50 50 49 48 49 48 49 50 50 50 51 51 51 51 51 50 49 50 49 48 47 47 47 47 47 46 46 45 45 44 44 44 44 42 41 41 42 42 42 43 44 43 43 44 44 44 46 46 47 47 46 46
49 47 47 47 47 47 49 49 50 50 50 50 51 50 50 50 50 49 49 48 47 47 46 47 47 46 45 45 45 44 45 45 45 44 43 43 43 41 42 43 44 42 43 43 45 47 44 45 46 46 46 45
49 49 49 48 47 49 50 49 48 48 50 50 49 50 49 49 49 49 48 48 48 47 46 46 47 46 45 44 44 45 45 44 42 41 41 42 41 43 41 43 43 39 43 41 41 41 44 45 44 44 45 43
49 51 50 50 51 50 50 53 53 52 51 51 50 50 49 49 49 48 47 47 47 46 46 46 46 46 46 45 45 44 42 42 40 40 39 38 41 41 42 42 42 39 43 39 41 40 38 42 42 43 40 44
51 51 52 52 52 52 53 52 52 52 51 50 49 48 49 49 49 48 48 48 46 46 45 45 45 47 46 46 45 44 44 43 41 42 40 38 36 38 38 38 38 41 37 39 39 39 38 37 36 35 39 38
50 50 49 49 49 49 47 47 47 48 47 48 48 48 47 47 48 47 47 48 47 46 44 43 41 43 44 45 44 45 44 45 44 43 42 41 38 36 39 39 38 37 36 35 41 39 40 39 38 37 38 41
50 49 48 46 44 43 43 44 44 44 46 47 47 46 49 49 48 47 47 47 47 47 46 44 43 39 40 41 41 41 42 45 45 44 43 42 41 40 41 39 38 35 36 34 35 36 42 40 38 37 38 38
49 48 49 48 46 46 45 45 46 49 50 50 50 49 49 49 49 48 47 47 47 46 46 46 45 43 41 41 41 41 41 40 41 42 41 43 42 41 41 39 37 36 36 34 33 33 34 35 37 37 36 34
MSLP
1024.42 1024.38 1024.34 1024.30 1024.30 1024.26 1024.34 1024.38 1024.42 1024.46 1024.46 1024.46 1024.42 1024.38 1024.34 1024.34 1024.26 1024.22 1024.22 1024.22 1024.22 1024.14 1024.06 1024.02 1024.02 1024.06 1024.10 1024.10 1024.10 1024.06 1024.06 1024.02 1023.98 1023.98 1023.90 1023.82 1023.74 1023.66 1023.54 1023.46 1023.38 1023.34 1023.30 1023.26 1023.22 1023.18 1023.06 1022.90 1022.74 1022.46 1022.06 1021.78
1024.70 1024.66 1024.62 1024.58 1024.50 1024.50 1024.58 1024.66 1024.70 1024.70 1024.70 1024.70 1024.66 1024.66 1024.62 1024.62 1024.58 1024.50 1024.50 1024.50 1024.50 1024.46 1024.42 1024.34 1024.30 1024.34 1024.34 1024.34 1024.26 1024.26 1024.22 1024.18 1024.14 1024.10 1024.06 1024.02 1023.94 1023.90 1023.78 1023.70 1023.62 1023.54 1023.46 1023.42 1023.38 1023.30 1023.22 1023.06 1022.90 1022.66 1022.42 1022.22
1024.90 1024.86 1024.82 1024.78 1024.78 1024.82 1024.90 1024.98 1025.02 1024.98 1024.94 1024.98 1024.94 1024.94 1024.90 1024.86 1024.82 1024.82 1024.78 1024.74 1024.74 1024.74 1024.70 1024.66 1024.58 1024.54 1024.50 1024.50 1024.50 1024.46 1024.38 1024.38 1024.34 1024.30 1024.30 1024.22 1024.18 1024.14 1024.06 1024.02 1023.94 1023.86 1023.78 1023.70 1023.62 1023.58 1023.42 1023.26 1023.06 1022.86 1022.58 1022.58
1024.86 1025.02 1024.98 1025.06 1025.14 1025.22 1025.26 1025.34 1025.34 1025.34 1025.30 1025.26 1025.18 1025.14 1025.06 1025.02 1024.98 1025.02 1025.02 1025.06 1025.02 1025.10 1025.06 1025.02 1024.90 1024.82 1024.70 1024.70 1024.70 1024.70 1024.62 1024.58 1024.54 1024.58 1024.54 1024.50 1024.50 1024.46 1024.42 1024.34 1024.30 1024.18 1024.06 1023.94 1023.86 1023.74 1023.62 1023.38 1023.18 1022.94 1022.90 1022.94
1024.94 1025.18 1025.22 1025.34 1025.50 1025.54 1025.62 1025.66 1025.62 1025.58 1025.50 1025.42 1025.38 1025.22 1025.18 1025.02 1024.98 1025.02 1025.10 1025.14 1025.18 1025.26 1025.30 1025.26 1025.18 1025.06 1024.94 1024.90 1024.90 1024.90 1024.86 1024.74 1024.70 1024.66 1024.62 1024.62 1024.58 1024.54 1024.50 1024.38 1024.26 1024.22 1024.14 1024.02 1023.94 1023.82 1023.66 1023.42 1023.14 1023.34 1023.30 1023.18
1025.18 1025.38 1025.46 1025.46 1025.54 1025.62 1025.74 1025.78 1025.70 1025.62 1025.58 1025.50 1025.38 1025.34 1025.14 1025.02 1024.98 1025.02 1025.18 1025.30 1025.34 1025.34 1025.42 1025.46 1025.38 1025.22 1025.14 1025.06 1025.02 1024.98 1024.94 1024.86 1024.78 1024.70 1024.70 1024.66 1024.66 1024.62 1024.54 1024.38 1024.10 1024.10 1024.10 1024.14 1024.06 1023.94 1023.82 1023.54 1023.62 1023.66 1023.58 1023.46
1025.26 1025.42 1025.50 1025.66 1025.74 1025.86 1025.86 1025.86 1025.78 1025.70 1025.66 1025.50 1025.46 1025.34 1025.18 1025.06 1025.14 1025.22 1025.34 1025.50 1025.58 1025.58 1025.66 1025.62 1025.58 1025.46 1025.34 1025.30 1025.22 1025.18 1025.10 1025.10 1025.06 1024.94 1024.90 1024.86 1024.82 1024.74 1024.58 1024.38 1024.34 1024.30 1024.22 1024.10 1024.14 1024.02 1023.86 1023.90 1024.02 1023.98 1023.90 1023.78
1025.22 1025.42 1025.54 1025.62 1025.70 1025.78 1025.82 1025.90 1025.90 1025.82 1025.70 1025.62 1025.54 1025.38 1025.18 1025.22 1025.30 1025.34 1025.50 1025.82 1025.78 1025.58 1025.46 1025.62 1025.66 1025.62 1025.50 1025.46 1025.42 1025.34 1025.14 1025.18 1025.14 1025.10 1025.02 1024.94 1024.82 1024.66 1024.62 1024.58 1024.58 1024.50 1024.42 1024.34 1024.22 1024.14 1024.10 1024.14 1024.22 1024.18 1024.06 1024.02
1025.18 1025.42 1025.50 1025.62 1025.70 1025.74 1025.74 1025.78 1025.78 1025.74 1025.70 1025.66 1025.58 1025.42 1025.34 1025.42 1025.42 1025.38 1025.38 1025.42 1025.38 1025.34 1025.42 1025.38 1025.34 1025.30 1025.26 1025.26 1025.30 1025.26 1025.06 1024.98 1025.02 1024.86 1024.86 1024.78 1024.70 1024.66 1024.74 1024.74 1024.78 1024.70 1024.58 1024.50 1024.42 1024.38 1024.38 1024.34 1024.34 1024.26 1024.26 1024.26
1025.22 1025.42 1025.38 1025.54 1025.62 1025.66 1025.62 1025.70 1025.66 1025.66 1025.62 1025.62 1025.62 1025.50 1025.50 1025.46 1025.42 1025.38 1025.38 1025.38 1025.38 1025.34 1025.30 1025.30 1025.30 1025.30 1025.26 1025.26 1025.22 1025.14 1025.02 1024.98 1024.98 1024.86 1024.82 1024.82 1024.82 1024.82 1024.86 1024.86 1024.86 1024.86 1024.78 1024.70 1024.62 1024.54 1024.58 1024.50 1024.42 1024.38 1024.38 1024.38
1025.10 1025.14 1025.26 1025.38 1025.46 1025.50 1025.54 1025.54 1025.54 1025.54 1025.54 1025.58 1025.62 1025.54 1025.42 1025.22 1025.22 1025.26 1025.26 1025.34 1025.34 1025.30 1025.22 1025.22 1025.22 1025.26 1025.26 1025.18 1025.14 1025.10 1025.06 1025.14 1025.06 1025.02 1025.02 1024.98 1025.02 1025.02 1025.02 1025.02 1024.98 1024.94 1024.90 1024.86 1024.78 1024.70 1024.70 1024.66 1024.58 1024.50 1024.50 1024.46
1024.82 1024.94 1025.14 1025.26 1025.50 1025.42 1025.42 1025.42 1025.42 1025.42 1025.42 1025.58 1025.54 1025.42 1025.22 1025.18 1025.06 1025.06 1025.14 1025.18 1025.22 1025.22 1025.22 1025.30 1025.30 1025.26 1025.26 1025.22 1025.26 1025.22 1025.18 1025.22 1025.18 1025.18 1025.18 1025.22 1025.22 1025.10 1025.10 1025.10 1025.06 1024.94 1024.90 1024.82 1024.82 1024.78 1024.78 1024.74 1024.66 1024.66 1024.62 1024.62
1024.58 1024.78 1024.98 1025.10 1025.18 1025.18 1025.46 1025.26 1025.26 1025.34 1025.46 1025.38 1025.30 1025.38 1025.30 1025.14 1024.98 1024.98 1024.98 1025.10 1025.14 1025.18 1025.26 1025.34 1025.30 1025.26 1025.34 1025.34 1025.34 1025.30 1025.30 1025.30 1025.26 1025.30 1025.30 1025.30 1025.26 1025.26 1025.22 1025.14 1025.10 1025.02 1024.98 1024.82 1024.82 1024.82 1024.82 1024.78 1024.74 1024.74 1024.70 1024.74
1024.38 1024.58 1024.78 1024.90 1024.98 1025.02 1025.26 1025.14 1025.18 1025.38 1025.22 1025.14 1025.18 1025.18 1025.18 1025.10 1024.94 1024.90 1024.98 1025.10 1025.06 1025.14 1025.26 1025.30 1025.34 1025.30 1025.34 1025.38 1025.38 1025.34 1025.38 1025.42 1025.38 1025.34 1025.38 1025.38 1025.34 1025.34 1025.30 1025.26 1025.34 1025.10 1025.02 1024.94 1024.94 1024.94 1024.90 1024.86 1024.78 1024.74 1024.74 1024.78
1024.14 1024.38 1024.50 1024.66 1024.78 1024.86 1024.94 1025.02 1025.22 1025.14 1025.06 1025.02 1024.98 1025.02 1025.22 1025.14 1025.10 1025.02 1025.02 1025.02 1025.02 1025.06 1025.10 1025.14 1025.18 1025.22 1025.26 1025.34 1025.42 1025.42 1025.50 1025.54 1025.50 1025.46 1025.54 1025.54 1025.42 1025.34 1025.30 1025.30 1025.34 1025.18 1025.02 1024.98 1024.94 1024.98 1025.02 1024.98 1024.86 1024.86 1024.82 1024.78
1023.90 1024.14 1024.22 1024.46 1024.54 1024.66 1024.74 1024.98 1024.94 1024.90 1024.90 1024.94 1024.94 1025.14 1025.22 1025.10 1025.10 1025.02 1025.06 1025.10 1025.10 1025.02 1025.06 1025.10 1025.22 1025.26 1025.30 1025.38 1025.50 1025.50 1025.54 1025.54 1025.54 1025.54 1025.66 1025.74 1025.70 1025.58 1025.42 1025.34 1025.30 1025.30 1025.02 1024.94 1024.94 1024.94 1024.98 1024.98 1024.98 1024.94 1024.90 1024.86
1023.66 1023.86 1024.02 1024.22 1024.30 1024.42 1024.70 1024.78 1024.74 1024.74 1024.74 1024.74 1024.90 1025.10 1025.18 1025.10 1025.14 1025.02 1024.98 1025.10 1025.14 1025.18 1025.10 1025.22 1025.26 1025.30 1025.42 1025.42 1025.50 1025.58 1025.74 1025.70 1025.58 1025.50 1025.50 1025.66 1025.62 1025.50 1025.42 1025.38 1025.34 1025.30 1025.06 1025.02 1025.02 1024.94 1024.98 1024.90 1024.90 1024.98 1024.90 1024.86
1023.38 1023.58 1023.78 1023.90 1024.02 1024.18 1024.50 1024.46 1024.50 1024.54 1024.54 1024.66 1024.78 1024.94 1025.10 1025.10 1025.06 1024.98 1024.98 1025.06 1025.18 1025.10 1025.14 1025.22 1025.22 1025.30 1025.38 1025.50 1025.62 1025.66 1025.62 1025.50 1025.46 1025.46 1025.62 1025.54 1025.42 1025.54 1025.34 1025.34 1025.38 1025.22 1025.10 1025.02 1024.98 1024.90 1024.94 1024.82 1024.82 1024.86 1024.86 1024.86
1023.10 1023.30 1023.46 1023.62 1023.74 1023.94 1024.18 1024.18 1024.26 1024.30 1024.42 1024.54 1024.58 1024.70 1024.86 1024.94 1024.94 1024.98 1024.98 1025.06 1025.06 1025.14 1025.10 1025.14 1025.18 1025.30 1025.34 1025.54 1025.66 1025.62 1025.62 1025.58 1025.54 1025.58 1025.62 1025.50 1025.42 1025.42 1025.38 1025.42 1025.42 1025.42 1025.26 1025.22 1025.14 1024.98 1024.82 1024.70 1024.70 1024.70 1024.82 1024.82
1022.90 1023.02 1023.22 1023.34 1023.54 1023.66 1023.98 1023.98 1024.02 1024.10 1024.22 1024.30 1024.34 1024.46 1024.54 1024.78 1024.82 1024.86 1024.98 1025.06 1025.06 1025.06 1025.10 1025.06 1025.10 1025.22 1025.38 1025.70 1025.66 1025.62 1025.70 1025.74 1025.54 1025.54 1025.62 1025.74 1025.62 1025.26 1025.34 1025.42 1025.34 1025.34 1025.34 1025.26 1025.18 1024.98 1024.78 1024.62 1024.62 1024.46 1024.54 1024.70
1022.70 1022.82 1022.98 1023.14 1023.38 1023.50 1023.78 1023.78 1023.82 1023.82 1023.94 1024.02 1024.10 1024.18 1024.26 1024.50 1024.66 1024.74 1024.86 1024.94 1025.06 1024.98 1025.06 1025.06 1025.10 1025.14 1025.50 1025.66 1025.58 1025.62 1025.62 1025.62 1025.50 1025.62 1025.62 1025.50 1025.62 1025.46 1025.18 1025.30 1025.42 1025.22 1025.14 1025.18 1025.06 1024.86 1024.74 1024.54 1024.42 1024.26 1024.34 1024.54
1022.46 1022.62 1022.78 1022.98 1023.14 1023.38 1023.50 1023.58 1023.50 1023.54 1023.62 1023.70 1023.78 1023.90 1024.02 1024.22 1024.42 1024.50 1024.66 1024.82 1024.90 1024.94 1024.94 1024.98 1025.06 1025.14 1025.42 1025.58 1025.58 1025.50 1025.50 1025.38 1025.46 1025.46 1025.42 1025.26 1025.42 1025.34 1025.22 1024.86 1024.98 1025.06 1025.02 1025.10 1024.94 1024.66 1024.54 1024.42 1024.14 1024.06 1024.26 1024.38
1022.30 1022.50 1022.62 1022.78 1023.02 1023.18 1023.30 1023.30 1023.26 1023.26 1023.34 1023.38 1023.46 1023.62 1023.74 1023.98 1024.10 1024.18 1024.38 1024.58 1024.78 1024.86 1024.86 1024.94 1025.02 1025.10 1025.30 1025.42 1025.38 1025.34 1025.30 1025.30 1025.38 1025.34 1025.30 1025.18 1025.10 1025.30 1025.10 1024.86 1024.90 1024.98 1024.90 1024.90 1024.70 1024.50 1024.22 1024.10 1024.06 1023.90 1024.10 1024.26
1022.02 1022.22 1022.34 1022.54 1022.82 1022.98 1022.98 1022.90 1022.98 1023.06 1023.10 1023.14 1023.22 1023.30 1023.50 1023.62 1023.78 1023.82 1024.10 1024.34 1024.54 1024.70 1024.70 1024.74 1024.78 1024.94 1025.10 1025.18 1025.10 1025.06 1024.98 1024.86 1024.86 1025.06 1025.18 1025.14 1025.02 1024.94 1024.98 1024.90 1024.78 1024.78 1024.62 1024.26 1024.18 1024.02 1023.86 1023.86 1023.82 1023.82 1023.90 1024.02
1021.46 1021.70 1021.98 1022.18 1022.18 1022.26 1022.30 1022.46 1022.58 1022.70 1022.78 1022.90 1022.90 1023.06 1023.22 1023.34 1023.46 1023.58 1023.82 1024.06 1024.26 1024.42 1024.54 1024.54 1024.54 1024.70 1024.86 1024.94 1024.90 1024.74 1024.54 1024.50 1024.50 1024.74 1024.74 1024.70 1024.74 1024.74 1024.46 1024.30 1024.42 1024.54 1024.46 1023.90 1023.14 1023.18 1023.66 1023.58 1023.62 1023.62 1023.62 1023.70
1020.82 1020.86 1020.94 1021.18 1021.46 1021.66 1021.70 1021.94 1022.14 1022.18 1022.26 1022.42 1022.62 1022.78 1022.90 1023.06 1023.14 1023.34 1023.54 1023.74 1023.94 1024.10 1024.18 1024.26 1024.26 1024.38 1024.50 1024.66 1024.58 1024.50 1024.38 1024.46 1024.58 1024.78 1024.74 1024.66 1024.50 1024.38 1024.22 1023.74 1024.06 1024.26 1024.02 1023.02 1023.10 1023.14 1022.54 1022.54 1023.22 1023.38 1023.38 1023.66
1020.18 1020.38 1020.62 1020.78 1020.90 1021.18 1021.22 1021.26 1021.38 1021.50 1021.66 1021.94 1022.14 1022.30 1022.54 1022.70 1022.86 1023.06 1023.26 1023.42 1023.62 1023.78 1023.86 1023.94 1023.94 1023.98 1024.06 1024.26 1024.30 1024.30 1024.34 1024.42 1024.54 1024.50 1024.58 1024.54 1023.94 1023.74 1023.98 1023.78 1023.94 1024.22 1023.74 1023.18 1023.06 1023.10 1022.90 1021.98 1021.94 1022.46 1023.46 1023.18
1019.78 1020.02 1020.26 1020.58 1020.70 1020.82 1020.82 1020.82 1021.06 1021.30 1021.46 1021.62 1021.82 1021.94 1022.14 1022.34 1022.50 1022.66 1022.86 1023.02 1023.30 1023.46 1023.58 1023.66 1023.66 1023.70 1023.74 1023.86 1023.98 1024.02 1023.90 1023.86 1024.02 1024.02 1024.14 1024.22 1024.10 1023.62 1023.30 1023.38 1023.62 1023.86 1023.94 1023.38 1022.74 1022.26 1022.06 1022.46 1022.50 1021.90 1021.14 1022.22
1019.58 1019.94 1020.30 1020.50 1020.78 1021.02 1021.14 1021.30 1021.34 1021.30 1021.22 1021.18 1021.30 1021.62 1021.78 1021.90 1022.18 1022.34 1022.46 1022.62 1022.82 1022.98 1023.18 1023.38 1023.46 1023.50 1023.50 1023.54 1023.66 1023.74 1023.54 1023.30 1023.26 1023.34 1023.46 1023.66 1023.74 1023.66 1023.02 1022.54 1023.02 1023.66 1023.86 1023.82 1023.14 1022.50 1022.18 1021.50 1021.38 1020.86 1021.42 1022.06
1019.18 1019.38 1019.70 1020.10 1020.46 1020.70 1020.78 1020.66 1020.70 1020.62 1020.38 1020.50 1020.86 1021.06 1021.22 1021.58 1021.74 1021.94 1022.14 1022.26 1022.38 1022.54 1022.70 1022.90 1023.10 1023.26 1023.30 1023.30 1023.34 1023.34 1023.18 1023.02 1022.90 1022.90 1022.98 1023.14 1023.22 1023.34 1023.22 1022.74 1022.70 1023.30 1023.66 1023.82 1023.66 1023.30 1022.50 1022.22 1021.98 1021.90 1021.78 1022.34
1018.78 1019.02 1019.14 1019.30 1019.50 1019.54 1019.66 1019.74 1019.58 1019.66 1019.82 1019.98 1020.18 1020.54 1020.82 1020.98 1021.26 1021.50 1021.74 1021.90 1022.06 1022.14 1022.30 1022.42 1022.58 1022.78 1022.90 1022.94 1022.94 1022.94 1022.98 1022.82 1022.66 1022.54 1022.66 1022.78 1022.94 1022.78 1022.90 1023.06 1022.66 1022.58 1022.78 1023.66 1023.78 1023.70 1023.46 1023.14 1022.62 1022.58 1022.38 1021.94
Wind_Speed
13 13 13 13 14 14 14 14 15 15 15 15 16 17 17 17 18 18 18 18 18 18 19 19 19 19 19 19 19 19 19 19 19 19 20 19 19 19 19 19 19 19 20 19 19 18 18 17 17 16 12 8
13 13 13 13 14 14 14 15 15 15 15 15 16 16 17 17 17 18 18 18 18 18 18 19 18 18 18 18 18 18 19 19 19 19 20 19 19 19 19 19 19 19 20 20 19 18 17 17 16 15 12 9
10 13 13 13 13 13 14 14 14 14 15 15 15 15 15 16 16 16 17 18 18 17 17 17 18 18 18 18 18 18 18 18 19 19 19 19 18 18 18 18 18 19 19 18 18 17 16 15 14 14 10 9
9 11 13 13 13 13 13 13 14 14 14 14 14 14 13 13 12 12 13 15 14 16 16 17 15 17 17 18 18 18 18 17 18 17 17 17 16 16 14 14 15 16 17 17 17 16 15 13 12 9 8 10
8 9 12 12 13 13 13 12 12 12 12 11 10 10 10 10 8 8 7 8 9 13 12 14 15 16 17 17 17 17 17 17 17 17 17 16 16 15 14 11 11 13 15 16 16 16 14 13 9 8 8 8
5 6 6 7 7 7 8 8 8 7 6 7 7 7 5 6 6 6 6 7 8 8 9 11 14 15 16 16 16 16 17 17 17 17 16 16 16 14 13 12 7 8 9 14 14 13 13 9 8 8 8 8
6 6 6 6 6 6 7 6 6 6 5 5 5 5 5 5 6 7 7 7 7 8 13 12 13 14 15 14 13 14 15 14 14 15 14 13 13 13 12 8 7 7 7 7 11 10 9 8 7 7 8 7
6 6 6 5 5 5 5 5 4 5 5 4 4 4 5 5 6 7 7 8 7 7 6 7 9 9 9 10 10 7 6 8 9 8 10 11 9 8 7 7 7 6 6 6 7 7 7 7 7 7 6 6
6 6 5 5 5 5 5 4 5 4 4 4 4 5 5 5 5 5 4 4 4 4 4 4 4 4 4 4 5 5 6 5 5 6 6 6 7 6 6 6 6 6 6 6 6 7 7 6 6 6 6 6
6 6 6 6 5 5 5 4 5 5 4 4 4 4 5 5 5 5 5 4 4 4 4 4 4 4 4 4 4 4 5 5 5 6 6 6 7 6 6 6 6 6 6 6 6 6 6 6 6 5 5 5
7 6 6 5 6 5 5 5 5 4 4 4 5 5 4 4 4 5 5 4 4 4 3 4 4 4 4 4 4 5 5 6 5 5 5 6 6 5 5 6 5 5 6 5 6 6 6 6 6 5 5 5
7 6 6 6 6 5 5 5 5 5 4 5 4 3 3 4 4 4 4 4 4 4 4 4 4 4 4 4 4 4 4 4 5 5 5 5 5 5 5 5 5 5 5 5 5 5 5 5 5 5 5 5
7 6 6 6 6 5 6 5 5 5 5 4 4 4 4 3 4 4 4 4 4 4 4 4 4 4 4 4 4 4 4 4 4 4 4 4 4 4 4 4 5 4 5 5 5 5 5 5 5 4 4 4
7 7 7 7 6 5 6 5 4 6 4 4 4 4 3 3 3 4 4 4 4 4 4 4 4 4 4 4 4 4 4 4 4 4 4 4 3 4 4 4 4 4 4 5 5 5 5 5 4 3 3 3
8 8 7 7 6 6 6 5 5 5 4 4 4 4 4 3 3 4 4 4 4 4 3 3 3 3 3 4 4 3 4 3 3 4 4 4 4 4 3 4 4 3 4 4 4 5 5 4 3 3 3 3
8 8 8 8 6 6 6 6 5 5 4 4 4 4 4 3 3 3 4 4 3 3 3 3 3 3 3 3 3 3 3 3 3 3 3 3 3 3 2 3 3 3 3 4 4 4 4 3 3 3 2 2
8 8 7 8 7 6 6 6 5 5 5 5 5 4 4 4 4 3 3 3 3 3 3 3 3 3 3 3 2 3 3 2 2 2 2 2 1 2 2 2 3 2 3 4 3 3 3 2 2 2 2 2
8 8 8 7 7 7 7 6 6 6 5 5 5 5 5 4 4 3 3 3 3 2 3 3 2 2 3 2 2 2 1 1 1 2 2 1 1 2 2 2 3 3 3 3 3 3 3 1 2 1 1 1
9 9 8 7 7 7 7 6 6 6 5 5 5 5 5 5 5 4 4 3 3 3 2 2 2 2 2 2 1 1 1 1 1 1 1 1 1 1 1 2 2 2 2 3 3 3 2 2 1 0 1 0
10 10 8 7 7 7 8 7 7 6 6 6 5 5 5 6 5 5 5 4 3 3 3 2 3 3 3 3 2 2 2 2 2 2 2 1 0 1 1 1 1 1 1 1 2 2 2 2 2 1 0 1
11 10 10 9 8 8 8 7 7 7 6 6 6 5 5 7 6 6 6 5 5 3 4 3 3 3 4 4 3 3 3 3 3 3 2 3 2 1 1 2 1 1 0 1 1 2 3 2 2 1 0 1
11 10 10 9 8 9 9 9 7 7 7 7 6 6 6 7 7 6 7 6 6 4 4 4 4 4 5 5 4 4 4 4 3 3 3 4 3 3 2 2 1 1 1 1 1 1 2 2 1 1 1 2
11 11 10 9 9 9 9 8 8 7 7 7 7 7 8 8 7 7 7 7 7 6 5 5 5 5 6 6 5 5 5 5 5 5 4 4 4 4 3 2 2 1 1 2 3 2 2 2 2 1 2 2
10 10 10 10 9 9 10 9 8 8 8 8 8 8 9 9 8 7 8 8 8 7 6 6 6 6 6 6 6 6 6 6 6 6 6 5 5 4 4 4 3 2 2 3 4 3 3 4 3 4 4 4
11 11 10 10 11 11 10 10 10 9 9 9 9 9 9 9 8 9 9 8 8 8 7 7 6 7 7 7 7 7 7 6 6 6 6 5 5 5 4 4 4 3 2 3 1 2 4 4 6 4 6 6
12 12 12 11 11 11 10 10 10 10 10 10 9 10 10 9 9 9 9 9 9 9 9 8 8 8 8 8 7 7 6 6 6 6 6 5 5 5 5 3 4 2 3 1 2 4 4 4 6 6 6 6
13 12 12 12 10 11 9 9 9 10 9 9 10 10 10 10 9 10 9 10 10 9 10 10 9 8 8 9 8 7 7 7 8 7 8 7 4 4 5 3 4 4 4 1 1 3 2 3 5 4 4 6
13 13 13 12 11 10 11 8 8 8 7 8 9 10 9 9 10 10 10 11 11 9 9 10 10 9 8 8 8 8 8 8 9 8 8 7 6 4 3 4 4 6 3 2 2 4 3 5 2 5 3 1
13 12 11 10 8 4 4 3 4 7 8 10 9 8 9 10 10 11 11 11 12 11 11 9 8 7 8 9 9 8 8 8 9 9 8 9 7 6 5 4 3 4 4 4 3 2 4 3 4 4 4 6
14 12 12 11 11 11 10 11 10 11 11 9 9 10 8 9 10 11 11 11 11 12 11 11 10 7 8 7 7 7 8 8 8 9 9 9 8 8 9 4 3 4 4 4 4 4 3 5 6 8 5 5
13 13 13 15 14 13 12 12 10 10 9 9 8 7 10 9 9 10 11 10 10 11 12 11 11 11 10 9 8 8 8 8 9 7 7 7 8 8 6 6 6 5 4 4 5 5 4 3 3 2 4 7
Wind_Direction
90 92 93 93 92 92 91 90 88 88 87 85 84 82 81 79 78 76 76 76 73 68 66 65 65 64 62 60 60 59 58 57 55 53 51 49 48 47 47 46 45 43 41 37 33 30 26 23 21 19 17 32
87 89 91 91 90 90 90 89 87 85 85 83 82 82 82 81 78 76 74 72 71 68 66 64 65 64 64 61 60 59 58 57 55 53 51 49 48 46 46 45 44 43 41 38 33 30 26 23 21 21 26 29
92 89 88 88 88 88 89 88 88 86 85 83 83 84 84 84 81 77 74 72 70 68 65 65 64 63 63 62 60 59 58 57 56 55 52 50 48 48 48 47 46 43 41 38 35 31 27 25 22 24 28 28
103 91 88 88 87 88 89 90 90 90 88 87 87 86 87 86 85 80 75 73 71 69 68 66 66 66 66 65 63 60 59 59 59 57 55 54 50 48 48 49 47 44 40 36 34 31 28 27 29 30 27 24
99 99 100 95 89 90 90 92 91 91 93 93 93 92 90 89 84 82 80 77 76 72 68 68 68 67 69 69 68 65 62 60 59 57 55 52 49 45 42 41 46 41 37 33 31 29 28 28 34 30 26 25
110 114 108 110 109 103 101 94 97 94 95 99 100 97 95 88 87 85 85 85 81 80 76 71 71 70 67 69 68 65 63 60 59 55 53 51 48 43 39 36 36 33 33 33 28 30 29 34 31 27 25 27
123 128 122 118 110 108 102 103 100 103 100 96 96 92 93 95 91 88 82 76 82 86 81 78 73 72 70 68 67 67 65 62 59 57 55 53 50 45 40 40 36 31 24 25 27 28 32 36 31 26 27 29
134 135 135 132 134 125 125 117 115 109 108 107 103 101 97 96 101 102 101 110 115 114 103 93 85 82 80 73 67 63 72 67 58 60 57 51 50 49 41 42 37 32 30 27 25 27 29 31 30 29 27 28
146 146 144 143 143 142 141 141 131 122 116 111 107 104 102 104 109 110 109 110 102 95 95 91 88 84 70 67 63 56 62 56 53 49 46 47 45 47 44 44 38 31 31 30 29 30 25 27 26 28 28 27
144 156 153 154 152 151 148 148 141 137 132 130 126 121 122 123 117 115 112 111 105 101 97 94 86 80 76 73 69 58 58 53 46 45 44 43 44 42 43 42 40 35 30 28 26 29 26 25 26 26 25 23
158 165 158 158 160 158 155 153 153 147 146 136 137 140 148 133 126 120 116 112 108 100 98 94 90 82 74 68 64 54 61 57 53 49 47 45 43 42 43 41 39 38 36 33 28 30 28 26 28 26 24 25
168 164 162 160 157 178 158 163 159 156 143 145 151 155 137 139 131 125 116 113 107 103 95 85 81 82 77 70 67 60 61 64 59 59 55 49 44 42 43 41 32 34 32 34 31 31 29 27 27 26 22 25
170 165 167 167 173 170 167 173 164 151 153 160 145 141 145 138 128 120 113 111 107 107 95 92 88 85 81 77 71 69 65 61 64 63 56 52 47 45 41 37 30 25 29 25 28 23 27 25 29 27 24 22
174 172 174 177 176 165 178 172 160 163 173 153 155 149 142 130 121 120 118 117 115 108 106 102 99 93 84 76 71 68 67 59 61 58 62 57 55 50 47 43 29 17 28 26 22 21 17 21 22 25 26 26
176 176 179 177 175 174 180 166 166 183 167 165 160 143 140 132 122 120 120 114 113 110 107 98 94 86 88 81 70 68 71 66 64 68 59 49 46 46 44 43 34 20 28 27 22 20 14 15 14 18 19 26
179 182 181 177 180 179 176 171 183 179 173 171 155 149 162 155 140 125 114 113 107 107 108 101 94 94 87 86 87 72 67 69 67 70 75 66 58 47 42 46 38 17 24 23 25 14 16 16 14 13 10 17
182 181 178 178 182 178 174 184 187 183 180 173 159 164 172 158 150 148 136 131 122 123 113 115 120 105 100 92 88 92 81 79 95 94 87 80 104 58 63 49 42 31 16 19 12 7 10 10 18 20 5 19
182 181 180 179 182 176 179 190 189 186 182 174 169 172 171 172 170 158 144 144 147 147 135 130 123 120 110 105 104 100 119 96 74 78 67 69 87 67 45 49 39 21 23 15 3 359 358 352 13 8 33 27
187 181 181 181 182 179 188 188 191 188 182 180 178 174 173 181 175 171 161 162 158 165 149 150 139 145 138 127 156 148 128 139 119 97 97 61 75 99 77 60 49 28 19 4 356 349 338 354 357 315 86 97
191 187 184 185 184 183 190 192 195 190 187 185 181 180 176 182 184 181 175 178 181 173 177 173 166 169 151 166 186 176 165 198 177 160 163 133 233 145 135 100 118 83 11 352 340 338 335 338 333 343 65 133
195 191 189 190 188 192 188 198 198 194 188 188 186 186 187 181 188 187 183 187 191 196 185 193 187 173 171 189 199 188 191 203 186 173 197 171 171 246 156 159 162 184 182 339 303 304 325 319 319 319 135 188
194 194 193 196 194 197 197 202 203 199 193 195 193 194 196 182 190 189 186 191 192 203 202 199 201 187 183 195 204 202 202 201 193 193 201 182 180 192 209 170 160 180 205 232 251 257 272 301 275 305 179 181
196 197 200 198 200 199 206 207 208 205 202 202 202 202 198 188 195 191 191 192 195 205 202 205 206 205 193 202 205 203 204 195 198 199 198 201 181 188 211 206 169 204 250 226 214 229 219 220 235 226 183 193
196 196 197 198 199 206 210 210 207 209 212 208 210 205 201 196 200 196 195 196 199 206 209 208 206 208 200 208 211 207 205 200 193 195 194 203 199 197 192 204 190 199 243 239 225 220 214 200 211 213 193 201
196 197 199 205 205 207 207 209 208 210 212 215 215 208 206 203 203 203 200 201 202 207 211 214 211 208 207 211 215 216 212 208 195 192 202 196 201 203 203 186 191 195 242 258 255 214 209 207 196 205 208 201
199 201 200 197 203 207 209 204 206 210 211 212 215 213 210 208 208 206 204 207 207 209 211 213 214 210 212 210 216 221 220 204 199 198 203 202 201 204 206 195 177 202 240 251 344 329 317 208 194 191 200 206
201 200 202 202 205 206 211 214 212 213 212 208 212 212 211 211 212 207 208 209 207 211 212 215 216 215 214 213 215 216 214 207 206 203 203 207 215 190 199 210 183 202 241 301 275 249 242 319 321 186 183 211
202 203 203 207 212 214 216 220 213 214 212 212 213 215 208 213 215 212 214 212 208 210 212 213 218 220 219 216 214 220 218 211 208 204 202 203 220 227 204 200 194 186 216 226 314 314 313 299 285 305 179 211
198 200 204 203 209 214 223 243 217 215 224 222 219 216 211 216 211 214 217 216 212 213 213 211 216 220 222 221 217 220 229 225 215 207 205 200 203 208 221 219 180 186 194 214 238 264 301 294 259 289 317 319
196 201 199 200 206 213 216 222 214 216 218 213 209 212 217 216 210 212 215 217 216 214 215 213 211 212 219 221 219 219 228 233 229 218 211 203 207 213 228 245 208 198 193 209 233 259 263 242 276 299 302 313
195 203 208 208 208 211 213 217 221 221 223 221 216 210 213 216 213 210 213 216 216 216 216 219 215 212 216 222 223 222 226 231 230 228 217 209 209 220 216 219 239 220 198 181 236 238 249 275 263 272 274 277